FW5225 Weather Reports


Display with metric or nautical units.
time (UTC)temp
F
wind
direction
speed
MPH
gust
MPH
rain 1hr
in
rain 24hr
in
rain mn
in
humidity
%
barometer
mb
20260507010024 83 151 2.0 10.0 0.00 0.00 0.00 18 1010.1
20260507005517 84 213 2.0 7.0 0.00 0.00 0.00 18 1010.2
20260507005016 84 190 2.0 6.0 0.00 0.00 0.00 18 1010.1
20260507004516 84 184 2.0 7.0 0.00 0.00 0.00 18 1010.2
20260507004015 84 260 3.0 7.0 0.00 0.00 0.00 17 1010.2
20260507003515 85 173 1.0 7.0 0.00 0.00 0.00 18 1010.1
20260507003015 85 211 3.0 7.0 0.00 0.00 0.00 17 1010.2
20260507002514 85 213 2.0 6.0 0.00 0.00 0.00 18 1010.2
20260507002014 85 205 1.0 8.0 0.00 0.00 0.00 17 1010.1
20260507001515 85 222 2.0 9.0 0.00 0.00 0.00 18 1010.1
20260507001013 85 198 2.0 9.0 0.00 0.00 0.00 17 1010.1
20260507000513 85 203 2.0 7.0 0.00 0.00 0.00 18 1010.0
20260507000018 86 224 2.0 7.0 0.00 0.00 0.00 18 1010.2
20260506235513 86 257 1.0 6.0 0.00 0.00 0.00 17 1010.1
20260506235011 86 183 2.0 7.0 0.00 0.00 0.00 17 1010.2
20260506234511 86 171 1.0 7.0 0.00 0.00 0.00 18 1010.2
20260506234011 86 95 0.0 8.0 0.00 0.00 0.00 18 1010.3
20260506233511 86 203 2.0 8.0 0.00 0.00 0.00 17 1010.2
20260506233010 86 180 1.0 7.0 0.00 0.00 0.00 18 1010.2
20260506232511 86 310 2.0 7.0 0.00 0.00 0.00 18 1010.4
20260506232009 86 141 2.0 8.0 0.00 0.00 0.00 18 1010.4
20260506231510 86 210 2.0 8.0 0.00 0.00 0.00 18 1010.4
20260506231008 86 167 1.0 8.0 0.00 0.00 0.00 18 1010.5
20260506230507 86 225 2.0 5.0 0.00 0.00 0.00 18 1010.6
20260506230007 86 182 2.0 5.0 0.00 0.00 0.00 18 1010.7
20260506225506 86 251 2.0 9.0 0.00 0.00 0.00 18 1010.7
20260506225006 86 155 2.0 10.0 0.00 0.00 0.00 18 1010.7
20260506224505 86 250 2.0 9.0 0.00 0.00 0.00 18 1010.8
20260506224004 86 179 2.0 9.0 0.00 0.00 0.00 18 1010.8
20260506223503 86 175 1.0 5.0 0.00 0.00 0.00 18 1010.9
20260506223002 85 240 1.0 6.0 0.00 0.00 0.00 18 1010.9
20260506222502 85 192 1.0 8.0 0.00 0.00 0.00 18 1011.0
20260506222002 85 228 1.0 6.0 0.00 0.00 0.00 18 1011.1
20260506221504 85 229 2.0 6.0 0.00 0.00 0.00 18 1011.2
20260506221002 86 166 2.0 6.0 0.00 0.00 0.00 19 1011.3
20260506220501 86 298 1.0 6.0 0.00 0.00 0.00 18 1011.3
20260506220101 86 190 2.0 10.0 0.00 0.00 0.00 18 1011.4
20260506215600 86 213 1.0 10.0 0.00 0.00 0.00 19 1011.4
20260506215058 85 144 2.0 9.0 0.00 0.00 0.00 19 1011.4
20260506214601 85 128 2.0 9.0 0.00 0.00 0.00 20 1011.6
20260506214057 85 171 3.0 9.0 0.00 0.00 0.00 20 1011.7
20260506213559 85 226 1.0 8.0 0.00 0.00 0.00 20 1011.8
20260506213059 84 251 3.0 8.0 0.00 0.00 0.00 20 1011.9
20260506212555 84 213 1.0 6.0 0.00 0.00 0.00 20 1012.0
20260506212055 84 184 2.0 6.0 0.00 0.00 0.00 21 1012.1
20260506211556 84 226 1.0 5.0 0.00 0.00 0.00 21 1012.2
20260506211055 83 234 1.0 5.0 0.00 0.00 0.00 21 1012.3
20260506210554 84 273 1.0 7.0 0.00 0.00 0.00 20 1012.4
20260506210054 84 134 2.0 7.0 0.00 0.00 0.00 22 1012.5
20260506205553 84 184 2.0 7.0 0.00 0.00 0.00 22 1012.5
20260506205052 84 182 2.0 7.0 0.00 0.00 0.00 20 1012.7
20260506204552 84 115 3.0 7.0 0.00 0.00 0.00 20 1012.7
20260506204050 83 183 1.0 6.0 0.00 0.00 0.00 21 1012.7
20260506203549 82 173 0.0 6.0 0.00 0.00 0.00 21 1012.8
20260506203049 81 229 0.0 5.0 0.00 0.00 0.00 22 1012.8
20260506202549 82 106 1.0 9.0 0.00 0.00 0.00 22 1012.8
20260506202049 82 274 4.0 9.0 0.00 0.00 0.00 21 1013.0
20260506201550 82 205 1.0 5.0 0.00 0.00 0.00 22 1013.0
20260506201048 82 115 2.0 5.0 0.00 0.00 0.00 21 1013.1
20260506200545 81 263 0.0 6.0 0.00 0.00 0.00 22 1013.1
20260506200046 80 198 1.0 6.0 0.00 0.00 0.00 23 1013.2
20260506195546 81 119 1.0 5.0 0.00 0.00 0.00 21 1013.3
20260506195045 81 284 2.0 5.0 0.00 0.00 0.00 22 1013.3
20260506194545 81 278 0.0 7.0 0.00 0.00 0.00 22 1013.3
20260506194044 80 167 2.0 7.0 0.00 0.00 0.00 23 1013.3
20260506193542 79 164 1.0 8.0 0.00 0.00 0.00 23 1013.4
20260506193050 80 288 4.0 10.0 0.00 0.00 0.00 22 1013.4
20260506192543 81 286 3.0 8.0 0.00 0.00 0.00 22 1013.5
20260506192042 81 268 1.0 5.0 0.00 0.00 0.00 22 1013.5
20260506191542 81 232 0.0 5.0 0.00 0.00 0.00 23 1013.7
20260506191046 81 161 2.0 6.0 0.00 0.00 0.00 22 1013.7
20260506190541 81 222 2.0 6.0 0.00 0.00 0.00 23 1013.8
20260506190040 80 146 2.0 5.0 0.00 0.00 0.00 22 1013.8
20260506185540 80 115 1.0 6.0 0.00 0.00 0.00 22 1013.9
20260506185038 80 140 1.0 6.0 0.00 0.00 0.00 23 1013.9
20260506184539 80 264 2.0 5.0 0.00 0.00 0.00 23 1013.9
20260506184036 80 193 1.0 6.0 0.00 0.00 0.00 23 1014.0
20260506183535 80 183 1.0 6.0 0.00 0.00 0.00 23 1014.0
20260506183033 80 304 1.0 6.0 0.00 0.00 0.00 23 1014.1
20260506182533 80 163 1.0 6.0 0.00 0.00 0.00 23 1014.2
20260506182032 79 184 2.0 6.0 0.00 0.00 0.00 23 1014.2
20260506181541 80 278 2.0 6.0 0.00 0.00 0.00 22 1014.2
20260506181030 80 94 2.0 6.0 0.00 0.00 0.00 22 1014.3
20260506180529 80 236 2.0 5.0 0.00 0.00 0.00 23 1014.3
20260506180028 80 200 1.0 6.0 0.00 0.00 0.00 22 1014.4
20260506175529 79 159 3.0 6.0 0.00 0.00 0.00 22 1014.3
20260506175025 79 219 1.0 5.0 0.00 0.00 0.00 23 1014.3
20260506174526 79 190 1.0 6.0 0.00 0.00 0.00 24 1014.3
20260506174026 78 191 2.0 6.0 0.00 0.00 0.00 24 1014.3
20260506173525 78 218 2.0 5.0 0.00 0.00 0.00 25 1014.4
20260506173031 78 209 2.0 5.0 0.00 0.00 0.00 25 1014.3
20260506172519 78 221 1.0 6.0 0.00 0.00 0.00 26 1014.3
20260506172017 77 167 2.0 7.0 0.00 0.00 0.00 26 1014.3
20260506171519 77 153 2.0 5.0 0.00 0.00 0.00 25 1014.3
20260506171017 77 177 0.0 6.0 0.00 0.00 0.00 26 1014.3
20260506170514 77 92 1.0 6.0 0.00 0.00 0.00 25 1014.3
20260506170012 77 152 1.0 5.0 0.00 0.00 0.00 27 1014.3
20260506165515 76 143 1.0 5.0 0.00 0.00 0.00 27 1014.3
20260506165010 75 92 1.0 5.0 0.00 0.00 0.00 26 1014.3
20260506164510 75 188 1.0 4.0 0.00 0.00 0.00 27 1014.3
20260506164006 74 204 2.0 4.0 0.00 0.00 0.00 27 1014.3
20260506163505 74 155 2.0 5.0 0.00 0.00 0.00 28 1014.3
20260506163009 74 102 1.0 5.0 0.00 0.00 0.00 28 1014.3
20260506162503 74 57 0.0 4.0 0.00 0.00 0.00 28 1014.3
20260506162002 73 181 1.0 4.0 0.00 0.00 0.00 29 1014.3
20260506161600 72 217 1.0 4.0 0.00 0.00 0.00 30 1014.2
20260506161058 71 148 0.0 8.0 0.00 0.00 0.00 30 1014.2
20260506160557 71 101 4.0 6.0 0.00 0.00 0.00 32 1014.1
20260506160056 70 74 1.0 5.0 0.00 0.00 0.00 34 1014.2
20260506155558 70 35 2.0 5.0 0.00 0.00 0.00 33 1014.2
20260506155057 70 115 1.0 5.0 0.00 0.00 0.00 34 1014.3
20260506154609 70 51 2.0 6.0 0.00 0.00 0.00 34 1014.2
20260506154051 70 52 2.0 7.0 0.00 0.00 0.00 33 1014.3
20260506153550 71 12 2.0 7.0 0.00 0.00 0.00 31 1014.3
20260506153049 71 11 2.0 5.0 0.00 0.00 0.00 32 1014.3
20260506152547 71 32 0.0 6.0 0.00 0.00 0.00 32 1014.3
20260506152045 71 89 1.0 4.0 0.00 0.00 0.00 31 1014.3
20260506151544 71 76 1.0 3.0 0.00 0.00 0.00 31 1014.3
20260506151043 70 151 0.0 2.0 0.00 0.00 0.00 32 1014.3
20260506150541 70 115 0.0 2.0 0.00 0.00 0.00 33 1014.3
20260506150040 69 136 0.0 1.0 0.00 0.00 0.00 34 1014.2
20260506145540 68 148 0.0 2.0 0.00 0.00 0.00 35 1014.2
20260506145038 68 124 0.0 2.0 0.00 0.00 0.00 34 1014.2
20260506144542 67 158 0.0 2.0 0.00 0.00 0.00 36 1014.2
20260506144034 66 240 0.0 2.0 0.00 0.00 0.00 37 1014.2
20260506143533 65 166 0.0 2.0 0.00 0.00 0.00 38 1014.1
20260506143032 65 190 0.0 0.0 0.00 0.00 0.00 39 1014.1
20260506142529 64 146 0.0 0.0 0.00 0.00 0.00 42 1014.1
20260506142029 63 146 0.0 1.0 0.00 0.00 0.00 43 1014.0
20260506141528 63 157 0.0 2.0 0.00 0.00 0.00 45 1014.0
20260506141027 62 151 0.0 2.0 0.00 0.00 0.00 45 1014.0
20260506140525 61 202 0.0 0.0 0.00 0.00 0.00 46 1013.8
20260506140027 60 202 0.0 0.0 0.00 0.00 0.00 48 1013.7
20260506135523 59 250 0.0 0.0 0.00 0.00 0.00 49 1013.7
20260506135023 59 250 0.0 0.0 0.00 0.00 0.00 51 1013.7
20260506134522 58 250 0.0 0.0 0.00 0.00 0.00 52 1013.6
20260506134019 58 250 0.0 0.0 0.00 0.00 0.00 54 1013.6
20260506133520 57 250 0.0 0.0 0.00 0.00 0.00 53 1013.5
20260506133018 57 250 0.0 0.0 0.00 0.00 0.00 53 1013.4
20260506132514 56 250 0.0 0.0 0.00 0.00 0.00 54 1013.4
20260506132017 56 250 0.0 0.0 0.00 0.00 0.00 54 1013.4
20260506131514 56 289 0.0 0.0 0.00 0.00 0.00 54 1013.3
20260506131015 56 289 0.0 0.0 0.00 0.00 0.00 53 1013.2
20260506130513 56 289 0.0 0.0 0.00 0.00 0.00 53 1013.2
20260506130011 56 5 0.0 0.0 0.00 0.00 0.00 53 1013.1
20260506125509 56 344 0.0 0.0 0.00 0.00 0.00 53 1013.1
20260506125008 56 344 0.0 0.0 0.00 0.00 0.00 53 1013.0
20260506124506 56 344 0.0 0.0 0.00 0.00 0.00 52 1012.9
20260506124005 57 344 0.0 0.0 0.00 0.00 0.00 52 1012.8
20260506123504 57 344 0.0 0.0 0.00 0.00 0.00 51 1012.8
20260506123004 57 344 0.0 0.0 0.00 0.00 0.00 51 1012.7
20260506122502 57 344 0.0 0.0 0.00 0.00 0.00 51 1012.7
20260506122001 58 342 0.0 0.0 0.00 0.00 0.00 50 1012.6
20260506121600 58 342 0.0 0.0 0.00 0.00 0.00 50 1012.6
20260506121059 58 96 0.0 0.0 0.00 0.00 0.00 50 1012.5
20260506120601 59 81 0.0 1.0 0.00 0.00 0.00 48 1012.5
20260506120057 59 107 0.0 2.0 0.00 0.00 0.00 47 1012.5
20260506115559 59 82 0.0 2.0 0.00 0.00 0.00 46 1012.4
20260506115055 60 315 0.0 2.0 0.00 0.00 0.00 45 1012.4
20260506114603 60 96 0.0 0.0 0.00 0.00 0.00 44 1012.4
20260506114052 61 71 0.0 0.0 0.00 0.00 0.00 44 1012.4
20260506113551 61 71 0.0 2.0 0.00 0.00 0.00 42 1012.4
20260506113050 61 70 0.0 2.0 0.00 0.00 0.00 42 1012.4
20260506112549 62 142 0.0 2.0 0.00 0.00 0.00 41 1012.3
20260506112053 62 148 0.0 2.0 0.00 0.00 0.00 41 1012.3
20260506111547 62 78 0.0 4.0 0.00 0.00 0.00 40 1012.2
20260506111048 62 333 1.0 3.0 0.00 0.00 0.00 41 1012.1
20260506110546 62 317 0.0 3.0 0.00 0.00 0.00 42 1012.1
20260506110047 63 244 0.0 3.0 0.00 0.00 0.00 40 1012.1
20260506105546 63 238 0.0 3.0 0.00 0.00 0.00 40 1012.1
20260506105046 63 246 0.0 4.0 0.00 0.00 0.00 40 1012.2
20260506104608 62 344 2.0 4.0 0.00 0.00 0.00 39 1012.1
20260506104044 62 62 0.0 2.0 0.00 0.00 0.00 41 1012.2
20260506103542 63 317 0.0 2.0 0.00 0.00 0.00 41 1012.1
20260506103042 63 260 0.0 2.0 0.00 0.00 0.00 41 1012.0
20260506102540 64 61 0.0 1.0 0.00 0.00 0.00 40 1012.0
20260506102039 64 61 0.0 2.0 0.00 0.00 0.00 40 1012.0
20260506101541 65 95 0.0 6.0 0.00 0.00 0.00 38 1011.9
20260506101036 65 88 1.0 6.0 0.00 0.00 0.00 37 1011.8
20260506100534 65 12 1.0 6.0 0.00 0.00 0.00 36 1011.8
20260506095532 66 348 3.0 7.0 0.00 0.00 0.00 35 1011.7
20260506095032 67 339 1.0 9.0 0.00 0.00 0.00 35 1011.6
20260506094534 67 304 4.0 11.0 0.00 0.00 0.00 34 1011.5
20260506094032 67 292 5.0 11.0 0.00 0.00 0.00 34 1011.4
20260506093529 67 319 6.0 11.0 0.00 0.00 0.00 34 1011.4
20260506093028 67 280 6.0 10.0 0.00 0.00 0.00 34 1011.3
20260506092530 67 308 5.0 11.0 0.00 0.00 0.00 34 1011.3
20260506092030 67 302 4.0 11.0 0.00 0.00 0.00 34 1011.4
20260506091529 67 311 5.0 10.0 0.00 0.00 0.00 34 1011.4
20260506091030 67 316 6.0 10.0 0.00 0.00 0.00 34 1011.3
20260506090530 67 324 7.0 10.0 0.00 0.00 0.00 34 1011.3
20260506090035 67 310 5.0 9.0 0.00 0.00 0.00 35 1011.3
20260506085529 67 295 5.0 10.0 0.00 0.00 0.00 35 1011.3
20260506085027 67 340 5.0 11.0 0.00 0.00 0.00 34 1011.3
20260506084527 67 302 7.0 11.0 0.00 0.00 0.00 34 1011.2
20260506084031 67 270 4.0 12.0 0.00 0.00 0.00 35 1011.2
20260506083527 67 310 6.0 12.0 0.00 0.00 0.00 34 1011.3
20260506083037 67 320 5.0 11.0 0.00 0.00 0.00 35 1011.2
20260506082525 67 286 5.0 11.0 0.00 0.00 0.00 35 1011.2
20260506082026 67 319 6.0 11.0 0.00 0.00 0.00 35 1011.3
20260506081525 67 309 5.0 10.0 0.00 0.00 0.00 35 1011.2
20260506081029 67 294 7.0 12.0 0.00 0.00 0.00 34 1011.2
20260506080525 67 334 7.0 12.0 0.00 0.00 0.00 35 1011.3
20260506073524 67 310 8.0 14.0 0.00 0.00 0.00 34 1011.3
20260506073022 67 290 5.0 16.0 0.00 0.00 0.00 34 1011.3
20260506072525 67 285 8.0 17.0 0.00 0.00 0.00 34 1011.3
20260506072021 67 331 10.0 17.0 0.00 0.00 0.00 34 1011.3
20260506071522 67 331 9.0 15.0 0.00 0.00 0.00 35 1011.2
20260506071019 67 284 6.0 14.0 0.00 0.00 0.00 35 1011.2
20260506070519 67 300 9.0 16.0 0.00 0.00 0.00 35 1011.1